Location: Forestville
(38.4740°N, 122.8890°W)
Time: 07:18:01
(UTC-08:00)

Amateur Radio Satellites - All Passes

Search period start: 24 January 2017 06:48
Search period end: 25 January 2017 06:48
Location: Forestville, 38.4740°N, 122.8890°W

Satellite Date Start Highest point End Downlink Frequencies (MHz)
Time Altitude Azimuth
NOAA 18 24 Jan 06:52:12 06:57:36 60° 102° (ESE) 07:02:59 137.9125
GOMX 1 24 Jan 07:02:19 07:05:03 17° 294° (WNW) 07:07:42 467.674
CUTE-I 24 Jan 07:08:27 07:13:36 50° 289° (WNW) 07:18:44 437.470
CANX-2 24 Jan 07:14:09 07:18:04 33° 97° (E) 07:21:56 2200.000
COMPASS 1 24 Jan 07:15:01 07:16:30 12° 91° (E) 07:17:58 437.405
SEEDS 24 Jan 07:16:37 07:19:45 20° 94° (E) 07:22:51 437.485
DOVE 4 24 Jan 07:18:23 07:21:54 27° 290° (WNW) 07:25:25 437.250
HO-68 24 Jan 07:21:01 07:27:45 41° 99° (E) 07:34:25 435.675
AAUSAT CUBESAT 2 24 Jan 07:22:35 07:23:12 10° 90° (E) 07:23:50 437.432
SO-50 24 Jan 07:22:46 07:27:22 50° 305° (NW) 07:31:55 436.795
PRISM 24 Jan 07:45:02 07:47:41 17° 66° (ENE) 07:50:20 437.425
PCSat 24 Jan 07:45:32 07:49:09 18° 46° (NE) 07:52:44 145.827
NOAA 15 24 Jan 07:47:15 07:51:15 22° 295° (WNW) 07:55:15 137.62
Cubesat XI-IV 24 Jan 07:54:05 07:57:57 21° 296° (WNW) 08:01:48 437.490
STRAND 1 24 Jan 07:57:26 08:01:03 20° 267° (W) 08:04:43 437.568
Oscar 11 24 Jan 08:01:40 08:03:15 12° 91° (E) 08:04:49 145.826/435.025
Cosmos 2499 24 Jan 08:10:21 08:15:11 20° 277° (W) 08:20:03 435.465 / 435.565
CINEMA 3 24 Jan 08:14:54 08:18:37 30° 289° (WNW) 08:22:27 145.822/145.860
CUTE 1.7 + AOD 2 24 Jan 08:19:31 08:23:40 48° 286° (WNW) 08:27:46 437.475
ANTELSAT 24 Jan 08:22:13 08:24:02 13° 64° (ENE) 08:25:52 437.575/2403.000
GONETS M04 24 Jan 08:24:22 08:31:21 27° 278° (W) 08:38:21
NOAA 18 24 Jan 08:34:11 08:37:45 18° 298° (WNW) 08:41:18 137.9125
CUBEBUG 2 24 Jan 08:39:26 08:43:51 73° 283° (WNW) 08:48:22 437.445
FUNcube-1 24 Jan 08:41:36 08:45:47 39° 98° (E) 08:50:00 145.935
RS-15 24 Jan 08:46:14 08:58:27 73° 245° (WSW) 09:10:09 29.354- 29.394
COMPASS 1 24 Jan 08:48:14 08:52:20 51° 286° (WNW) 08:56:22 437.405
CANX-2 24 Jan 08:50:34 08:53:40 20° 292° (WNW) 08:56:45 2200.000
SEEDS 24 Jan 08:51:42 08:55:27 31° 289° (WNW) 08:59:12 437.485
AAUSAT CUBESAT 2 24 Jan 08:54:54 08:59:00 57° 286° (WNW) 09:03:04 437.432
UWE-3 24 Jan 08:58:30 09:02:55 72° 284° (WNW) 09:07:27 435.000/436.395/437.385
ZACube-1 24 Jan 09:07:08 09:11:35 85° 103° (ESE) 09:16:07 437.345
HO-68 24 Jan 09:08:55 09:15:19 36° 296° (WNW) 09:21:41 435.675
JAS-2 24 Jan 09:11:54 09:15:47 20° 61° (ENE) 09:19:55 435.910
PRISM 24 Jan 09:18:45 09:22:38 38° 261° (W) 09:26:33 437.425
UNISAT 6 24 Jan 09:27:39 09:31:53 71° 76° (ENE) 09:36:08 437.425
PCSat 24 Jan 09:27:40 09:33:06 73° 245° (WSW) 09:38:29 145.827
DELFI C3 24 Jan 09:32:48 09:36:36 41° 98° (E) 09:40:20 145.870
Oscar 11 24 Jan 09:35:24 09:39:41 55° 285° (WNW) 09:43:56 145.826/435.025
TIGRISAT 24 Jan 09:39:34 09:43:49 90° 260° (W) 09:48:05 435.000
ANTELSAT 24 Jan 09:56:07 10:00:16 53° 260° (W) 10:04:27 437.575/2403.000
QB50P1 24 Jan 10:01:58 10:04:21 15° 66° (ENE) 10:06:44 145.935-145.965
POLYITAN 1 24 Jan 10:07:11 10:09:56 17° 67° (ENE) 10:12:41 437.675
QB50P2 24 Jan 10:08:21 10:11:19 19° 67° (ENE) 10:14:17 145.880/145.840
HUMSAT D 24 Jan 10:14:23 10:18:41 72° 101° (ESE) 10:22:58 437.325/437.525
FUNcube-1 24 Jan 10:18:39 10:21:43 19° 293° (WNW) 10:24:48 145.935
POPSAT HIP 1 24 Jan 10:27:59 10:31:33 28° 70° (ENE) 10:35:08 437.405
DUCHIFAT 1 24 Jan 10:33:04 10:36:36 28° 70° (ENE) 10:40:08 145.980
NANOSAT C BR1 24 Jan 10:40:40 10:44:31 37° 72° (ENE) 10:48:23 145.865
ESTCUBE 1 24 Jan 10:44:41 10:47:52 19° 93° (E) 10:51:01 437.505/2401.250
BY70-1 24 Jan 10:46:04 10:48:48 28° 97° (E) 10:51:20 436.1900
Cosmos 2491 24 Jan 10:47:30 10:48:46 10° 57° (ENE) 10:50:02 435.465 / 435.565
BUGSAT 1 24 Jan 10:50:34 10:52:52 15° 66° (ENE) 10:55:11 437.445
JAS-2 24 Jan 10:55:01 11:00:16 54° 261° (W) 11:06:07 435.910
RS-15 24 Jan 11:02:50 11:08:32 15° 265° (W) 11:14:11 29.354- 29.394
DELFI C3 24 Jan 11:08:57 11:11:00 14° 294° (WNW) 11:13:02 145.870
CUBEBUG 1 24 Jan 11:11:01 11:14:12 20° 94° (E) 11:17:22 437.445
AO-85 24 Jan 11:28:24 11:30:28 13° 109° (ESE) 11:32:28 145.980
QB50P1 24 Jan 11:35:45 11:39:44 43° 261° (W) 11:43:45 145.935-145.965
50 SAT 24 Jan 11:35:53 11:37:47 14° 93° (E) 11:39:39 437.505
AISAT 24 Jan 11:39:07 11:42:48 26° 96° (E) 11:46:29 437.250
POLYITAN 1 24 Jan 11:41:33 11:45:25 36° 262° (W) 11:49:18 437.675
QB50P2 24 Jan 11:43:05 11:46:52 32° 263° (W) 11:50:40 145.880/145.840
Gurwin Techsat 1B 24 Jan 11:47:28 11:49:07 11° 59° (ENE) 11:50:45 435.225
POPSAT HIP 1 24 Jan 12:04:06 12:07:18 21° 265° (W) 12:10:32 437.405
SPROUT 24 Jan 12:06:21 12:10:20 37° 98° (E) 12:14:17 437.525
DUCHIFAT 1 24 Jan 12:09:01 12:12:14 21° 265° (W) 12:15:28 145.980
VELOX 1 24 Jan 12:11:44 12:16:05 59° 101° (E) 12:20:24 145.980
CUSAT 1 24 Jan 12:14:03 12:19:33 20° 63° (ENE) 12:24:39 437.405
NANOSAT C BR1 24 Jan 12:17:45 12:20:21 16° 267° (W) 12:22:58 145.865
BY70-1 24 Jan 12:17:53 12:18:38 11° 294° (WNW) 12:19:21 436.1900
UKube-1 24 Jan 12:19:09 12:22:34 23° 96° (E) 12:25:57 .
ESTCUBE 1 24 Jan 12:20:36 12:24:46 38° 289° (WNW) 12:28:56 437.505/2401.250
AIST 1 24 Jan 12:23:57 12:26:17 14° 86° (E) 12:28:37
BUGSAT 1 24 Jan 12:24:06 12:27:54 39° 261° (W) 12:31:42 437.445
DX 1 24 Jan 12:28:44 12:32:50 40° 99° (E) 12:36:54 434.975-435.025
Oscar 19 24 Jan 12:32:05 12:37:09 57° 73° (ENE) 12:42:16 437.125/150
Cosmos 2491 24 Jan 12:38:55 12:47:38 61° 79° (E) 12:56:19 435.465 / 435.565
YUBILEINY 24 Jan 12:42:46 12:49:52 28° 83° (E) 12:56:58 435.215
CUBEBUG 1 24 Jan 12:46:41 12:50:30 32° 290° (WNW) 12:54:20 437.445
Cosmos 2504 24 Jan 13:00:49 13:06:09 18° 81° (E) 13:11:18 435.465 / 435.565
AO-85 24 Jan 13:05:45 13:10:28 65° 303° (WNW) 13:14:51 145.980
50 SAT 24 Jan 13:07:55 13:11:03 29° 288° (WNW) 13:14:08 437.505
AISAT 24 Jan 13:15:34 13:19:10 25° 291° (WNW) 13:22:45 437.250
TISAT 1 24 Jan 13:18:02 13:21:47 31° 97° (E) 13:25:32 437.305
JUGNU 24 Jan 13:21:30 13:23:23 11° 177° (S) 13:25:15 437.505
Gurwin Techsat 1B 24 Jan 13:22:56 13:28:14 90° 226° (SW) 13:33:36 435.225
ITAMSAT 1 24 Jan 13:26:47 13:30:26 20° 64° (ENE) 13:34:04 435.822/435.867
AO-7 24 Jan 13:39:43 13:46:53 33° 59° (ENE) 13:54:04 29.400- 29.500
SPROUT 24 Jan 13:43:08 13:45:56 17° 293° (WNW) 13:48:45 437.525
DANDE 24 Jan 13:47:50 13:55:21 39° 73° (ENE) 14:02:54 436.750
VELOX 1 24 Jan 13:50:10 13:52:00 12° 297° (WNW) 13:53:50 145.980
CUSAT 1 24 Jan 13:54:32 14:02:31 83° 262° (W) 14:09:24 437.405
UKube-1 24 Jan 13:54:52 13:58:33 28° 291° (WNW) 14:02:14 .
AIST 1 24 Jan 13:59:20 14:03:28 42° 281° (W) 14:07:36
ITUPSAT 1 24 Jan 14:04:06 14:07:38 20° 94° (E) 14:11:08 437.325
DX 1 24 Jan 14:05:54 14:08:40 17° 295° (WNW) 14:11:26 434.975-435.025
Oscar 19 24 Jan 14:13:41 14:16:48 16° 268° (W) 14:19:57 437.125/150
SO-50 24 Jan 14:16:45 14:18:48 13° 41° (NE) 14:20:51 436.795
BEESAT 24 Jan 14:34:45 14:39:19 43° 99° (E) 14:43:51 436.000
SWISSCUBE 24 Jan 14:36:49 14:41:31 51° 100° (E) 14:46:10 437.505
Cosmos 2491 24 Jan 14:36:51 14:43:46 27° 278° (W) 14:50:43 435.465 / 435.565
YUBILEINY 24 Jan 14:37:22 14:46:01 59° 281° (WNW) 14:54:45 435.215
BEESAT 3 24 Jan 14:48:55 14:52:38 48° 116° (ESE) 14:56:26 437.485
Cosmos 2504 24 Jan 14:49:57 14:58:37 82° 276° (W) 15:06:44 435.465 / 435.565
O/OREOS (USA 219) 24 Jan 14:53:41 14:57:48 34° 63° (ENE) 15:01:56 437.305
TISAT 1 24 Jan 14:54:11 14:57:12 20° 292° (WNW) 15:00:12 437.305
SRMSAT 24 Jan 15:00:29 15:01:41 11° 172° (S) 15:02:53 437.500
ITAMSAT 1 24 Jan 15:04:31 15:09:30 49° 260° (W) 15:14:30 435.822/435.867
JUGNU 24 Jan 15:10:45 15:11:27 10° 188° (S) 15:12:10 437.505
BRITE-PL 24 Jan 15:12:17 15:16:17 20° 66° (ENE) 15:20:13 437.365/2234.400
MOZHAYETS 4 24 Jan 15:25:50 15:30:19 46° 99° (E) 15:34:46
DANDE 24 Jan 15:30:24 15:38:08 48° 269° (W) 15:45:53 436.750
AO-7 24 Jan 15:31:04 15:39:13 56° 257° (WSW) 15:47:26 29.400- 29.500
KKS-1 24 Jan 15:32:37 15:35:09 15° 93° (E) 15:37:41 437.445
CUSAT 1 24 Jan 15:39:13 15:43:00 15° 282° (WNW) 15:46:35 437.405
HORYU 2 24 Jan 15:39:46 15:41:32 12° 63° (ENE) 15:43:19 437.375
ITUPSAT 1 24 Jan 15:41:05 15:45:35 40° 289° (WNW) 15:50:02 437.325
BEESAT 2 24 Jan 15:43:52 15:47:48 87° 120° (ESE) 15:51:48 435.950
SO-50 24 Jan 15:55:22 15:59:54 86° 238° (WSW) 16:04:21 436.795
M-CUBED/EXP-1 PRIME 24 Jan 16:06:46 16:09:33 25° 102° (ESE) 16:12:18 437.505
STARS 24 Jan 16:12:03 16:15:04 18° 94° (E) 16:18:04 437.465
BEESAT 24 Jan 16:13:22 16:16:45 19° 295° (WNW) 16:20:08 436.000
SWISSCUBE 24 Jan 16:15:50 16:18:51 17° 296° (WNW) 16:21:51 437.505
CUBESAT XI-V 24 Jan 16:24:40 16:28:43 29° 96° (E) 16:32:44 437.345
BEESAT 3 24 Jan 16:28:09 16:30:32 15° 314° (NW) 16:32:55 437.485
GOMX 1 24 Jan 16:28:50 16:33:47 40° 72° (ENE) 16:38:29 467.674
O/OREOS (USA 219) 24 Jan 16:33:37 16:36:57 20° 259° (W) 16:40:18 437.305
AUBIESAT-1 24 Jan 16:38:53 16:42:09 58° 105° (ESE) 16:45:24 437.475
NOAA 18 24 Jan 16:40:14 16:42:40 13° 59° (ENE) 16:45:05 137.9125
DOVE 4 24 Jan 16:44:51 16:48:32 22° 69° (ENE) 16:52:03 437.250
SRMSAT 24 Jan 16:47:44 16:49:57 12° 183° (S) 16:52:09 437.500
Cosmos 2504 24 Jan 16:48:39 16:53:06 15° 296° (WNW) 16:57:27 435.465 / 435.565
BRITE-PL 24 Jan 16:48:42 16:54:17 57° 260° (W) 16:59:46 437.365/2234.400
CUTE-I 24 Jan 16:49:48 16:54:14 28° 67° (ENE) 16:58:41 437.470
LilacSat-2 24 Jan 17:03:58 17:07:18 31° 72° (ENE) 17:10:40 437.200
MOZHAYETS 4 24 Jan 17:04:05 17:07:05 17° 294° (WNW) 17:10:04
KKS-1 24 Jan 17:07:41 17:11:55 45° 288° (WNW) 17:16:07 437.445
HORYU 2 24 Jan 17:13:12 17:17:32 61° 258° (WSW) 17:21:55 437.375
NOAA 15 24 Jan 17:25:11 17:30:23 62° 73° (ENE) 17:35:39 137.62
BEESAT 2 24 Jan 17:25:24 17:26:10 10° 318° (NW) 17:26:55 435.950
Cubesat XI-IV 24 Jan 17:33:34 17:38:51 70° 74° (ENE) 17:44:09 437.490
GONETS M04 24 Jan 17:36:02 17:38:42 12° 74° (ENE) 17:41:22
CINEMA 3 24 Jan 17:39:21 17:42:02 16° 67° (ENE) 17:44:41 145.822/145.860
M-CUBED/EXP-1 PRIME 24 Jan 17:41:59 17:43:51 14° 297° (WNW) 17:45:40 437.505
STARS 24 Jan 17:47:29 17:51:30 36° 289° (WNW) 17:55:31 437.465
HO-68 24 Jan 17:48:47 17:54:36 28° 61° (ENE) 18:00:27 435.675
CUBESAT XI-V 24 Jan 18:02:06 18:05:59 26° 291° (WNW) 18:09:49 437.345
CANX-2 24 Jan 18:05:57 18:09:05 20° 68° (ENE) 18:12:15 2200.000
GOMX 1 24 Jan 18:07:42 18:11:53 23° 265° (W) 18:15:56 467.674
SEEDS 24 Jan 18:08:18 18:10:01 12° 64° (ENE) 18:11:42 437.485
NOAA 18 24 Jan 18:17:04 18:22:34 84° 255° (WSW) 18:28:05 137.9125
DOVE 4 24 Jan 18:21:28 18:26:00 37° 262° (W) 18:30:19 437.250
AIST 2 24 Jan 18:24:32 18:28:37 85° 123° (ESE) 18:32:48 435.215
CUTE-I 24 Jan 18:29:19 18:34:07 35° 263° (W) 18:38:57 437.470
STRAND 1 24 Jan 18:29:49 18:33:10 17° 93° (E) 18:36:29 437.568
LilacSat-2 24 Jan 18:39:22 18:41:39 15° 267° (W) 18:43:58 437.200
Cosmos 2499 24 Jan 18:49:33 18:57:37 55° 91° (E) 19:05:07 435.465 / 435.565
NOAA 15 24 Jan 19:07:36 19:10:33 15° 268° (W) 19:13:31 137.62
CUTE 1.7 + AOD 2 24 Jan 19:10:02 19:14:17 86° 258° (WSW) 19:18:35 437.475
CINEMA 3 24 Jan 19:14:47 19:18:53 39° 262° (W) 19:22:52 145.822/145.860
Cubesat XI-IV 24 Jan 19:17:00 19:19:23 13° 269° (W) 19:21:48 437.490
GONETS M04 24 Jan 19:25:11 19:33:50 73° 93° (E) 19:42:34
HO-68 24 Jan 19:34:50 19:41:52 57° 258° (WSW) 19:48:57 435.675
CUBEBUG 2 24 Jan 19:36:02 19:40:10 76° 76° (ENE) 19:44:19 437.445
FUNcube-1 24 Jan 19:36:13 19:39:32 24° 69° (ENE) 19:42:52 145.935
COMPASS 1 24 Jan 19:36:45 19:40:56 83° 79° (E) 19:45:11 437.405
CANX-2 24 Jan 19:40:55 19:44:43 31° 263° (W) 19:48:33 2200.000
SEEDS 24 Jan 19:41:02 19:45:11 56° 260° (W) 19:49:22 437.485
AAUSAT CUBESAT 2 24 Jan 19:42:56 19:47:06 74° 75° (ENE) 19:51:17 437.432
UWE-3 24 Jan 19:53:56 19:58:03 74° 75° (ENE) 20:02:12 435.000/436.395/437.385
ISS 24 Jan 19:56:04 19:59:07 37° 135° (SE) 20:02:10 145.825
ZACube-1 24 Jan 20:01:27 20:05:27 51° 74° (ENE) 20:09:31 437.345
AIST 2 24 Jan 20:06:18 20:07:42 11° 318° (NW) 20:09:06 435.215
STRAND 1 24 Jan 20:07:36 20:12:36 52° 288° (WNW) 20:17:35 437.568
DELFI C3 24 Jan 20:17:23 20:20:22 20° 69° (ENE) 20:23:22 145.870
Oscar 11 24 Jan 20:28:08 20:32:27 90° 251° (WSW) 20:36:49 145.826/435.025
Cosmos 2499 24 Jan 20:44:08 20:50:59 28° 288° (WNW) 20:57:30 435.465 / 435.565
RS-15 24 Jan 20:58:51 21:06:46 21° 98° (E) 21:14:50 29.354- 29.394
PRISM 24 Jan 21:01:34 21:05:10 29° 97° (E) 21:08:44 437.425
HUMSAT D 24 Jan 21:04:02 21:07:51 38° 72° (ENE) 21:11:44 437.325/437.525
FUNcube-1 24 Jan 21:12:17 21:15:40 24° 265° (W) 21:19:06 145.935
UNISAT 6 24 Jan 21:21:26 21:24:25 17° 93° (E) 21:27:25 437.425
GONETS M04 24 Jan 21:25:00 21:31:29 23° 293° (WNW) 21:38:04
TIGRISAT 24 Jan 21:32:48 21:36:14 21° 95° (E) 21:39:42 435.000
ISS 24 Jan 21:32:55 21:35:40 24° 332° (NNW) 21:38:24 145.825
AO-85 24 Jan 21:38:37 21:42:30 65° 58° (ENE) 21:46:23 145.980
ZACube-1 24 Jan 21:40:48 21:42:03 11° 269° (W) 21:43:19 437.345
ESTCUBE 1 24 Jan 21:43:27 21:46:06 15° 65° (ENE) 21:48:45 437.505/2401.250
ANTELSAT 24 Jan 21:48:49 21:52:55 33° 97° (E) 21:57:05 437.575/2403.000
DELFI C3 24 Jan 21:51:32 21:54:59 27° 264° (W) 21:58:28 145.870
JAS-2 24 Jan 22:04:37 22:10:47 27° 93° (E) 22:17:08 435.910
CUBEBUG 1 24 Jan 22:06:16 22:08:49 15° 65° (ENE) 22:11:20 437.445
PCSat 24 Jan 22:26:34 22:30:05 18° 105° (ESE) 22:33:36 145.827
BY70-1 24 Jan 22:27:24 22:30:28 88° 258° (WSW) 22:33:45 436.1900
AISAT 24 Jan 22:35:19 22:38:37 21° 67° (ENE) 22:41:54 437.250
PRISM 24 Jan 22:37:15 22:40:15 20° 293° (WNW) 22:43:15 437.425
HUMSAT D 24 Jan 22:41:12 22:43:37 15° 268° (W) 22:46:04 437.325/437.525
PHONESAT 2.4 24 Jan 22:43:13 22:44:21 13° 149° (SSE) 22:45:28 2401.200-2431.200
YUBILEINY 24 Jan 22:56:32 22:59:21 12° 58° (ENE) 23:02:09 435.215
UNISAT 6 24 Jan 22:57:01 23:01:15 41° 288° (WNW) 23:05:33 437.425
SPROUT 24 Jan 22:58:38 23:02:02 24° 69° (ENE) 23:05:28 437.525
RS-15 24 Jan 23:05:33 23:17:23 88° 119° (ESE) 23:29:47 29.354- 29.394
VELOX 1 24 Jan 23:07:19 23:11:30 43° 72° (ENE) 23:15:42 145.980
BEESAT 3 24 Jan 23:07:32 23:10:32 20° 49° (NE) 23:13:31 437.485
TIGRISAT 24 Jan 23:08:54 23:12:56 34° 289° (WNW) 23:17:02 435.000
UKube-1 24 Jan 23:12:49 23:15:37 17° 66° (ENE) 23:18:25 .
ESTCUBE 1 24 Jan 23:18:04 23:22:27 49° 260° (W) 23:26:54 437.505/2401.250
QB50P1 24 Jan 23:21:45 23:25:31 31° 97° (E) 23:29:18 145.935-145.965
DX 1 24 Jan 23:22:50 23:26:37 30° 70° (ENE) 23:30:26 434.975-435.025
ANTELSAT 24 Jan 23:25:59 23:29:25 22° 292° (WNW) 23:32:54 437.575/2403.000
POLYITAN 1 24 Jan 23:27:27 23:31:24 37° 98° (E) 23:35:20 437.675
QB50P2 24 Jan 23:28:51 23:32:52 41° 98° (E) 23:36:53 145.880/145.840
50 SAT 24 Jan 23:40:14 23:43:47 78° 77° (ENE) 23:47:23 437.505
CUBEBUG 1 24 Jan 23:40:26 23:44:40 47° 261° (W) 23:48:55 437.445
Cosmos 2491 24 Jan 23:48:31 23:51:16 12° 75° (ENE) 23:54:00 435.465 / 435.565
JAS-2 24 Jan 23:48:43 23:56:01 62° 288° (WNW) 00:03:44 435.910
POPSAT HIP 1 24 Jan 23:48:53 23:53:05 65° 100° (E) 23:57:18 437.405
DUCHIFAT 1 24 Jan 23:53:08 23:57:19 62° 101° (E) 00:01:29 145.980
NANOSAT C BR1 25 Jan 00:01:25 00:05:40 87° 104° (ESE) 00:09:53 145.865
BEESAT 2 25 Jan 00:03:07 00:06:46 31° 53° (NE) 00:10:24 435.950
BUGSAT 1 25 Jan 00:07:05 00:10:38 29° 97° (E) 00:14:13 437.445
PCSat 25 Jan 00:07:38 00:12:57 58° 301° (WNW) 00:18:19 145.827
AIST 1 25 Jan 00:07:41 00:11:39 37° 78° (ENE) 00:15:35
TISAT 1 25 Jan 00:08:41 00:11:45 20° 68° (ENE) 00:14:49 437.305
AISAT 25 Jan 00:10:48 00:14:50 34° 262° (W) 00:18:52 437.250
PHONESAT 2.4 25 Jan 00:15:34 00:17:46 84° 157° (SSE) 00:19:58 2401.200-2431.200
SPROUT 25 Jan 00:34:18 00:37:51 26° 264° (W) 00:41:25 437.525
BEESAT 3 25 Jan 00:44:34 00:48:15 35° 245° (WSW) 00:51:54 437.485
VELOX 1 25 Jan 00:45:25 00:48:08 16° 267° (W) 00:50:51 145.980
Cosmos 2504 25 Jan 00:45:27 00:51:43 30° 72° (ENE) 00:57:52 435.465 / 435.565
Oscar 19 25 Jan 00:45:53 00:49:51 22° 94° (E) 00:53:47 437.125/150
UKube-1 25 Jan 00:47:15 00:51:18 40° 261° (W) 00:55:24 .
YUBILEINY 25 Jan 00:49:14 00:58:02 67° 80° (E) 01:06:43 435.215
ISS 25 Jan 00:50:41 00:50:50 10° 12° (NNE) 00:50:59 145.825
QB50P1 25 Jan 00:57:58 01:01:04 20° 292° (WNW) 01:04:11 145.935-145.965
DX 1 25 Jan 00:59:24 01:02:48 22° 265° (W) 01:06:13 434.975-435.025
POLYITAN 1 25 Jan 01:04:04 01:06:53 18° 293° (WNW) 01:09:44 437.675
QB50P2 25 Jan 01:05:44 01:08:18 16° 294° (WNW) 01:10:53 145.880/145.840
ITUPSAT 1 25 Jan 01:09:40 01:13:10 21° 66° (ENE) 01:16:40 437.325
CUSAT 1 25 Jan 01:14:37 01:17:42 15° 78° (ENE) 01:21:05 437.405
RS-15 25 Jan 01:21:10 01:31:37 33° 325° (NW) 01:42:22 29.354- 29.394
POPSAT HIP 1 25 Jan 01:27:25 01:28:18 11° 297° (WNW) 01:29:10 437.405
DUCHIFAT 1 25 Jan 01:31:21 01:32:26 11° 296° (WNW) 01:33:32 145.980
JAS-2 25 Jan 01:37:21 01:39:44 12° 305° (NW) 01:42:10 435.910
Cosmos 2491 25 Jan 01:37:48 01:46:26 74° 94° (E) 01:55:08 435.465 / 435.565
BEESAT 25 Jan 01:39:36 01:44:04 42° 71° (ENE) 01:48:32 436.000
Gurwin Techsat 1B 25 Jan 01:40:49 01:45:49 40° 98° (E) 01:50:47 435.225
BEESAT 2 25 Jan 01:41:17 01:44:21 21° 249° (WSW) 01:47:25 435.950
SWISSCUBE 25 Jan 01:41:40 01:46:14 49° 72° (ENE) 01:50:50 437.505
BUGSAT 1 25 Jan 01:42:50 01:45:49 20° 292° (WNW) 01:48:48 437.445
TISAT 1 25 Jan 01:43:30 01:47:11 30° 263° (W) 01:50:52 437.305
AIST 1 25 Jan 01:46:24 01:48:52 15° 274° (W) 01:51:20
PHONESAT 2.4 25 Jan 01:49:23 01:51:32 44° 1° (N) 01:53:40 2401.200-2431.200
Oscar 19 25 Jan 02:24:29 02:29:17 41° 290° (WNW) 02:34:04 437.125/150
ISS 25 Jan 02:25:10 02:28:07 31° 31° (NNE) 02:31:03 145.825
MOZHAYETS 4 25 Jan 02:26:11 02:30:22 36° 71° (ENE) 02:34:36
KKS-1 25 Jan 02:30:14 02:32:07 13° 63° (ENE) 02:34:02 437.445
Cosmos 2504 25 Jan 02:38:28 02:45:13 43° 271° (W) 02:51:51 435.465 / 435.565
ITUPSAT 1 25 Jan 02:46:14 02:50:42 39° 262° (W) 02:55:11 437.325
AIST 2 25 Jan 02:47:16 02:51:10 35° 53° (NE) 02:55:04 435.215
YUBILEINY 25 Jan 02:47:24 02:53:59 24° 279° (W) 03:00:33 435.215
M-CUBED/EXP-1 PRIME 25 Jan 02:50:43 02:54:31 33° 67° (ENE) 02:58:05 437.505
CUSAT 1 25 Jan 02:52:46 02:58:15 78° 279° (W) 03:05:21 437.405
DANDE 25 Jan 02:55:32 02:59:09 27° 85° (E) 03:03:43 436.750
STARS 25 Jan 03:08:06 03:10:27 14° 64° (ENE) 03:12:47 437.465
ITAMSAT 1 25 Jan 03:18:29 03:23:41 66° 102° (ESE) 03:28:53 435.822/435.867
BEESAT 25 Jan 03:18:41 03:21:59 19° 266° (W) 03:25:18 436.000
Gurwin Techsat 1B 25 Jan 03:21:17 03:25:30 24° 294° (WNW) 03:29:43 435.225
SWISSCUBE 25 Jan 03:21:26 03:24:16 16° 268° (W) 03:27:08 437.505
AUBIESAT-1 25 Jan 03:22:26 03:26:33 62° 70° (ENE) 03:30:24 437.475
PHONESAT 2.4 25 Jan 03:23:04 03:25:17 77° 196° (SSW) 03:27:29 2401.200-2431.200
CUBESAT XI-V 25 Jan 03:26:36 03:30:24 25° 68° (ENE) 03:34:13 437.345
AO-7 25 Jan 03:34:06 03:42:19 57° 103° (ESE) 03:50:26 29.400- 29.500
Cosmos 2491 25 Jan 03:37:41 03:44:07 22° 293° (WNW) 03:50:36 435.465 / 435.565
RS-15 25 Jan 03:41:54 03:49:51 19° 360° (N) 03:57:48 29.354- 29.394
ISS 25 Jan 04:01:46 04:04:31 25° 227° (SW) 04:07:16 145.825
KKS-1 25 Jan 04:03:47 04:08:10 60° 259° (W) 04:12:34 437.445
MOZHAYETS 4 25 Jan 04:04:17 04:07:37 20° 266° (W) 04:10:58
M-CUBED/EXP-1 PRIME 25 Jan 04:25:53 04:28:58 19° 259° (W) 04:31:55 437.505
AIST 2 25 Jan 04:26:15 04:29:25 21° 249° (WSW) 04:32:34 435.215
DANDE 25 Jan 04:38:04 04:41:48 26° 293° (WNW) 04:46:30 436.750
CUSAT 1 25 Jan 04:39:19 04:41:47 12° 303° (WNW) 04:44:25 437.405
STARS 25 Jan 04:42:07 04:46:21 49° 260° (W) 04:50:36 437.465
Cosmos 2499 25 Jan 04:44:48 04:48:14 14° 64° (ENE) 04:51:39 435.465 / 435.565
BRITE-PL 25 Jan 04:55:55 05:00:29 54° 99° (E) 05:04:43 437.365/2234.400
PHONESAT 2.4 25 Jan 04:57:43 04:58:40 12° 211° (SSW) 04:59:36 2401.200-2431.200
ITAMSAT 1 25 Jan 04:59:39 05:02:33 15° 298° (WNW) 05:05:29 435.822/435.867
CUBESAT XI-V 25 Jan 05:03:26 05:07:36 31° 264° (W) 05:11:49 437.345
O/OREOS (USA 219) 25 Jan 05:04:13 05:08:34 52° 107° (ESE) 05:12:55 437.305
HORYU 2 25 Jan 05:05:44 05:09:32 27° 97° (E) 05:13:20 437.375
CUTE-I 25 Jan 05:10:06 05:11:51 11° 90° (E) 05:13:36 437.470
AO-7 25 Jan 05:27:31 05:34:37 33° 301° (WNW) 05:41:43 29.400- 29.500
GONETS M04 25 Jan 05:37:40 05:45:31 34° 72° (ENE) 05:53:17
NOAA 15 25 Jan 05:42:22 05:46:46 26° 95° (E) 05:51:08 137.62
STRAND 1 25 Jan 05:44:16 05:48:07 22° 65° (ENE) 05:51:58 437.568
Cubesat XI-IV 25 Jan 05:52:36 05:57:20 31° 97° (E) 06:02:02 437.490
RS-15 25 Jan 05:57:28 06:08:09 32° 35° (NE) 06:18:31 29.354- 29.394
SO-50 25 Jan 06:07:53 06:12:21 43° 116° (ESE) 06:16:47 436.795
GOMX 1 25 Jan 06:10:14 06:14:27 59° 285° (WNW) 06:18:32 467.674
LilacSat-2 25 Jan 06:12:09 06:16:00 59° 101° (E) 06:19:50 437.200
DOVE 4 25 Jan 06:21:20 06:25:28 64° 101° (E) 06:29:36 437.250
BRITE-PL 25 Jan 06:36:04 06:38:23 14° 297° (WNW) 06:40:37 437.365/2234.400
